Regional Weather Roundup
Issued by NWS

Home | Current Version | Previous Version | Text Only | Print | Product List | Glossary On
Versions: 1 2 3 4 5 6 7 8 9 10 11 12 13 14 15 16 17 18 19 20 21 22 23 24 25 26 27 28 29 30 31 32 33 34 35 36 37 38 39 40 41 42 43 44 45 46 47 48 49 50
266
ASUS44 KLIX 250205
RWRLA
LOUISIANA WEATHER ROUNDUP
NATIONAL WEATHER SERVICE NEW ORLEANS LA
900 PM CDT THU APR 24 2014

NOTE: "FAIR" INDICATES FEW OR NO CLOUDS BELOW 12,000 FEET WITH NO
      SIGNIFICANT WEATHER AND/OR OBSTRUCTIONS TO VISIBILITY.
      SKY/WX - SKY CONDITION AND SIGNIFICANT WEATHER.
      TMP - AIR TEMPERATURE.    DP   - DEWPOINT TEMPERATURE.
      RH  - RELATIVE HUMIDITY.  PRES - PRESSURE.
      HX  - HEAT INDEX.         WCI  - WIND CHILL INDEX.

*  THESE STATIONS ARE NOT NWS OR FAA STATIONS AND ARE NOT UNDER
   NWS QUALITY CONTROL.

LAZ040-048-061>063-065-066-069-250300-
SOUTHEAST LOUISIANA

CITY           SKY/WX    TMP DP  RH WIND       PRES   REMARKS
N.O. AUDUBON     N/A     72  67  84 MISG        N/A
N.O. INTL ARPT PTCLDY    72  66  81 S10       29.91R
N.O. LAKEFRONT CLEAR     73  66  78 SW12      29.92R
N.O. DOWNTOWN* FAIR      75  63  64 S9        29.92S
SLIDELL        CLEAR     73  66  78 S10       29.90R
BATON ROUGE    PTCLDY    74  63  68 SW13      29.90R
BOOTHVILLE     PTCLDY    72  68  87 S7        29.94R
BELLE CHASSE   MOCLDY    69  64  84 SW5       29.92R
BOGALUSA*        N/A     74  65  73 S8        29.90R
GALLIANO*      MOCLDY    74  67  77 S6        29.93R
NEW ROADS*     CLOUDY    73  64  72 S9        29.89R
GONZALES*      FAIR      72  67  82 SW5       29.91R
HAMMOND*       CLEAR     73  64  73 S10       29.91R
HOUMA*           N/A     72  65  80 S3        29.92R
PORT FOURCHON*   N/A     73  68  83 S7        29.95R

$$

LAZ041-044-053-054-250300-
SOUTHWEST LOUISIANA

CITY           SKY/WX    TMP DP  RH WIND       PRES   REMARKS
LAKE CHARLES   PTCLDY    72  67  84 SW7       29.89R
LAFAYETTE      CLOUDY    73  67  81 S9        29.90R
PATTERSON      PTCLDY    70  66  88 S7        29.96R
SALT POINT       N/A     74  69  85 CALM      29.92R
NEW IBERIA     CLOUDY    73  67  81 S10       29.91R
CHENAULT AIRPK MOCLDY    73  66  78 S9        29.90R

$$

LAZ027-028-250300-
CENTRAL LOUISIANA

CITY           SKY/WX    TMP DP  RH WIND       PRES   REMARKS
FORT POLK      CLOUDY    73  66  78 S7        29.88R
ALEXANDRIA INT CLOUDY    75  66  73 SW13      29.85R
ALEXANDRIA     CLOUDY    76  65  68 SW14G20   29.87R

$$

LAZ001-002-250300-
NORTHWEST LOUISIANA

CITY           SKY/WX    TMP DP  RH WIND       PRES   REMARKS
SHREVEPORT     MOCLDY    75  66  73 VRB7      29.83R
BARKSDALE AFB  NOT AVBL
DTN SHREVEPORT MOCLDY    74  65  73 W6        29.83R

$$

LAZ014-016-250300-
NORTHEAST LOUISIANA

CITY           SKY/WX    TMP DP  RH WIND       PRES   REMARKS
MONROE         CLEAR     71  66  84 SW9       29.84R
TALLULAH       CLOUDY    78  65  63 SW10G18   29.82R

$$




USA.gov is the U.S. government's official web portal to all federal, state and local government web resources and services.